Location: Dackenheim
(49.5215°N, 8.1854°E)
Time: 18:02:06
(UTC+00:00)

DIWATA 2B (PO-101) - Visible Passes

Search period start: 07 March 2026 00:00
Search period end: 17 March 2026 00:00
Orbit: 559 x 575 km, 98.1° (Epoch: 7 March)

Date Brightness Start Highest point End Pass type
(mag) Time Alt. Az. Time Alt. Az. Time Alt. Az.
7 Mar ? 04:39:16 10° SSE 04:43:15 58° ENE 04:47:14 10° N visible
7 Mar ? 17:49:06 10° NNE 17:53:01 48° E 17:56:53 10° S visible
7 Mar ? 19:24:50 10° NNW 19:27:43 19° WNW 19:30:36 10° WSW visible
8 Mar ? 04:40:11 10° SSE 04:44:10 59° ENE 04:48:09 10° N visible
8 Mar ? 17:50:01 10° NNE 17:53:56 49° E 17:57:49 10° S visible
8 Mar ? 19:25:46 10° NNW 19:28:39 19° WNW 19:31:29 10° WSW visible
9 Mar ? 04:41:07 10° SSE 04:45:05 60° ENE 04:49:05 10° N visible
9 Mar ? 17:50:56 10° NNE 17:54:51 50° E 17:58:45 10° S visible
9 Mar ? 19:26:43 10° NNW 19:29:33 19° WNW 19:32:23 10° WSW visible
10 Mar ? 04:42:01 10° SSE 04:46:00 61° ENE 04:50:00 10° N visible
10 Mar ? 17:51:50 10° NNE 17:55:46 51° E 17:59:40 10° S visible
10 Mar ? 19:27:39 10° NNW 19:30:27 19° WNW 19:33:15 10° WSW visible
11 Mar ? 04:42:56 10° SSE 04:46:55 62° ENE 04:50:55 10° N visible
11 Mar ? 17:52:45 10° NNE 17:56:41 52° E 18:00:35 10° S visible
11 Mar ? 19:28:35 10° NNW 19:31:21 18° WNW 19:34:08 10° WSW visible
12 Mar ? 04:43:50 10° SSE 04:47:49 63° ENE 04:51:49 10° N visible
12 Mar ? 17:53:38 10° NNE 17:57:35 52° E 18:01:30 10° S visible
12 Mar ? 19:29:30 10° NNW 19:32:15 18° WNW 19:35:00 10° WSW visible
13 Mar ? 04:44:43 10° SSE 04:48:43 64° ENE 04:52:43 10° N visible
13 Mar ? 19:30:24 10° NNW 19:33:08 18° WNW 19:35:52 10° WSW visible
14 Mar ? 04:45:37 10° SSE 04:49:37 65° ENE 04:53:37 10° N visible
14 Mar ? 17:55:24 10° NNE 17:59:22 54° E 18:03:18 10° S visible
14 Mar ? 19:31:19 10° NNW 19:34:01 18° WNW 19:36:43 10° WSW visible
15 Mar ? 04:46:30 10° SSE 04:50:29 66° ENE 04:54:30 10° N visible
15 Mar ? 17:56:17 10° NNE 18:00:15 55° E 18:04:11 10° S visible
15 Mar ? 19:32:13 10° NNW 19:34:53 17° WNW 19:37:34 10° WSW visible
16 Mar ? 04:47:22 10° SSE 04:51:22 67° ENE 04:55:22 10° N visible
16 Mar ? 19:33:07 10° NNW 19:35:45 17° WNW 19:38:24 10° WSW visible
